Flag for Germany Weather past 2 weeks in Hamburg, Hamburg, Germany

Now
57 °F

Clear.


Feels Like: 56 °F
Forecast: 47 / 64 °F
Wind: 6 mph from Southwest

Location: Hamburg-Fuhlsbuettel

Current Time: Sep 2, 2015 at 9:38:59 PM

Latest Report: Sep 2, 2015 at 9:20 PM


Visibility: 10 mi

Pressure: 29.95 "Hg

Humidity: 77%

Dew point: 50 °F

Location of HamburgLocation

Historic Weather in Hamburg — Graph

°F

Hamburg temperature yesterday

Maximum temperature yesterday: 68 °F (at 12:20 AM)
Minimum temperature yesterday: 57 °F (at 10:20 PM)
Average temperature yesterday: 64 °F

Past Weeks' High & Low Weather Summary

 TemperatureHumidityPressure
High82 °F (Aug 31, 4:50 PM)100% (Aug 18, 10:20 PM)30.30 "Hg (Aug 18, 10:20 PM)
Low50 °F (Aug 29, 3:50 AM)30% (Aug 22, 12:50 PM)29.59 "Hg (Aug 24, 7:20 PM)
Average64 °F77%29.98 "Hg
* Reported Aug 18 8:20 PM — Sep 2 8:20 PM, Hamburg, Weather by CustomWeather, © 2015

Note: Actual official high and low records may vary slightly from our data, if they occured in-between our weather recording intervals... More about our weather records

Advertising

Hamburg weather history for previous 24 hours

 ConditionsComfort  
Time TempWeatherWind HumidityBarometerVisibility
8:20 PM
Wed, Sep 2
59 °FScattered showers. Passing clouds.6 mph72%29.95 "HgN/A
7:50 PM61 °FPassing clouds.8 mph68%29.95 "HgN/A
7:20 PM63 °FScattered clouds.7 mph64%29.92 "HgN/A
6:50 PM63 °FScattered showers. Scattered clouds.15 mph64%29.92 "HgN/A
6:20 PM64 °FScattered clouds.15 mph56%29.92 "HgN/A
5:20 PM64 °FPartly sunny.14 mph56%29.92 "HgN/A
4:50 PM64 °FPartly sunny.13 mph60%29.92 "HgN/A
4:20 PM64 °FBroken clouds.9 mph60%29.92 "HgN/A
3:50 PM63 °FBroken clouds.12 mph59%29.92 "HgN/A
3:20 PM66 °FScattered clouds.16 mph52%29.92 "HgN/A
2:50 PM64 °FScattered clouds.16 mph56%29.92 "HgN/A
2:20 PM66 °FScattered clouds.16 mph56%29.92 "HgN/A
1:50 PM64 °FScattered clouds.16 mph64%29.92 "HgN/A
1:20 PM63 °FPartly sunny.14 mph59%29.92 "HgN/A
12:50 PM63 °FScattered clouds.12 mph64%29.92 "HgN/A
12:20 PM64 °FScattered clouds.13 mph68%29.92 "HgN/A
11:50 AM63 °FPartly sunny.18 mph64%29.92 "HgN/A
11:20 AM61 °FScattered clouds.15 mph68%29.92 "HgN/A
10:50 AM61 °FScattered clouds.16 mph72%29.92 "HgN/A
10:20 AM61 °FPassing clouds.14 mph72%29.92 "HgN/A
9:50 AM59 °FPassing clouds.14 mph77%29.92 "HgN/A
9:20 AM57 °FPassing clouds.15 mph82%29.92 "HgN/A
8:50 AM57 °FPassing clouds.13 mph82%29.92 "HgN/A
8:20 AM55 °FPassing clouds.15 mph88%29.92 "HgN/A
7:50 AM55 °FPassing clouds.13 mph82%29.92 "HgN/A
7:20 AM54 °FPassing clouds.12 mph88%29.89 "HgN/A
6:50 AM54 °FPassing clouds.10 mph88%29.89 "HgN/A
6:20 AM54 °FPassing clouds.10 mph88%29.89 "HgN/A
5:50 AM54 °FPassing clouds.12 mph88%29.89 "HgN/A
5:20 AM54 °FPassing clouds.14 mph94%29.89 "HgN/A
4:50 AM54 °FClear.13 mph94%29.89 "Hg10 mi
4:20 AM54 °FPassing clouds.12 mph94%29.92 "HgN/A
3:50 AM54 °FClear.12 mph94%29.92 "Hg10 mi
3:20 AM54 °FClear.12 mph94%29.89 "Hg10 mi
2:50 AM54 °FClear.12 mph94%29.92 "Hg10 mi
2:20 AM54 °FClear.10 mph94%29.92 "Hg10 mi
1:50 AM55 °FClear.10 mph88%29.89 "Hg10 mi
1:20 AM55 °FPassing clouds.10 mph88%29.89 "HgN/A
12:50 AM57 °FPassing clouds.10 mph82%29.89 "HgN/A
11:20 PM
Tue, Sep 1
57 °FPassing clouds.9 mph82%29.89 "HgN/A
10:50 PM57 °FPassing clouds.8 mph88%29.89 "HgN/A
10:20 PM57 °FClear.7 mph88%29.89 "Hg10 mi
9:50 PM59 °FPassing clouds.9 mph82%29.86 "HgN/A
9:20 PM59 °FPassing clouds.7 mph82%29.86 "HgN/A
Weather by CustomWeather, © 2015

See weather overviewHow to use our weather pages